Temperature
13 14 14 14 12 11 12 13 15 16 18 20 21 21 20 20 21 21 21 21 21 20 20 19 19 18 18 18 18 17 17 17 17 17 17 17 17 17 17 16 16 16 15 15 15 15 15 14 14
13 13 14 13 11 12 12 13 15 17 18 20 20 21 20 20 21 21 20 20 20 20 19 19 18 18 18 17 17 17 17 17 17 17 17 17 17 17 16 16 16 15 15 15 15 14 14 14 14
13 13 13 11 11 12 13 15 16 17 19 19 20 20 20 20 20 20 20 20 20 19 19 19 18 18 17 17 17 17 17 17 17 17 16 16 16 16 16 16 15 15 15 15 14 14 14 14 14
13 13 12 10 11 12 13 14 15 16 18 18 18 19 19 19 19 19 19 19 19 19 18 18 18 17 17 17 17 16 16 16 16 16 16 16 16 16 16 15 15 15 15 15 14 14 14 14 14
12 12 10 10 11 12 13 15 15 15 15 17 17 16 18 18 18 18 18 18 18 18 18 18 17 17 17 17 17 16 16 16 16 16 16 16 15 15 15 15 15 14 14 14 14 14 14 14 14
11 10 10 10 11 13 13 15 15 14 15 16 16 15 17 17 18 18 18 18 17 17 17 17 17 16 16 16 16 16 16 16 16 16 15 15 15 15 15 15 14 14 14 14 14 14 14 14 13
10 9 9 10 11 12 13 14 13 13 13 14 15 14 16 16 17 16 16 17 17 16 16 16 16 16 16 16 16 16 16 15 15 15 15 15 15 15 15 14 14 14 14 14 14 14 14 13 13
10 8 9 9 10 12 12 13 13 13 13 14 14 13 14 15 15 15 15 15 15 16 16 16 16 15 15 15 15 15 15 15 15 15 15 15 15 14 14 14 14 14 14 14 14 14 13 13 13
10 8 8 9 10 11 12 12 12 12 13 13 13 14 14 14 14 14 14 15 15 15 15 15 15 15 15 15 15 15 15 15 15 15 14 14 14 14 14 14 14 13 13 14 14 13 13 13 12
9 7 8 10 10 10 11 11 11 11 11 12 12 13 13 13 13 13 13 13 14 14 14 14 15 15 15 15 14 14 14 14 14 14 14 14 14 14 14 13 13 13 13 13 13 13 13 12 12
8 8 9 10 10 10 10 10 11 10 10 11 12 12 12 12 13 13 13 13 13 13 13 14 14 14 14 14 14 14 14 14 14 14 14 14 14 14 13 13 13 13 13 13 13 13 12 12 12
8 8 9 9 10 9 9 9 10 10 11 12 12 12 12 12 12 12 12 12 13 13 13 13 13 14 14 14 14 14 14 13 13 14 14 14 13 13 13 13 13 13 13 13 13 12 12 12 12
7 8 9 9 9 9 9 9 9 10 11 11 11 11 11 11 12 12 12 12 12 12 13 13 13 13 13 13 13 13 13 13 13 13 13 13 13 13 13 13 13 12 12 12 12 12 12 12 11
7 7 8 8 9 9 8 9 9 10 11 11 11 11 11 11 11 11 11 11 12 12 12 12 12 13 13 13 13 13 13 13 13 13 13 13 13 13 13 13 12 12 12 12 12 12 12 11 11
7 6 6 8 8 8 8 8 8 10 10 10 10 10 11 11 11 11 11 11 11 12 12 12 12 12 12 12 12 12 13 13 12 12 13 12 12 12 12 12 12 12 12 12 12 12 11 11 11
6 5 5 7 8 8 7 7 9 10 10 9 9 10 10 10 10 11 11 11 11 11 11 11 12 12 12 12 12 12 12 12 12 12 12 12 12 12 12 12 12 12 12 12 11 11 11 11 11
5 4 5 6 8 8 7 7 8 9 9 9 9 9 10 10 10 10 11 11 11 11 11 11 11 11 11 12 11 12 12 12 12 12 12 12 12 12 12 12 12 12 12 11 11 11 11 11 11
5 5 5 5 7 7 6 7 8 9 9 9 9 9 9 10 10 10 10 10 10 10 11 11 11 11 11 11 11 11 11 11 11 12 12 11 11 11 11 11 11 11 11 11 11 11 11 11 10
6 5 5 6 7 7 6 7 8 8 8 8 9 9 9 10 10 10 10 10 10 10 10 10 11 10 10 10 10 10 10 11 11 11 11 11 11 11 11 11 11 11 11 11 11 11 11 10 10
6 5 5 6 7 7 6 7 7 8 8 9 9 9 9 10 10 10 10 10 10 10 10 10 10 10 10 10 10 10 10 10 11 11 11 11 11 11 11 11 11 11 11 11 11 11 10 10 10
6 5 5 5 6 6 6 6 6 7 8 9 9 9 9 9 9 10 10 10 10 10 10 10 10 10 9 9 9 9 9 10 10 10 10 11 11 11 11 11 11 11 11 11 11 11 11 10 10
5 6 6 6 5 4 5 5 6 6 7 8 8 9 9 9 9 9 9 9 10 10 10 10 9 9 9 9 9 9 9 9 10 10 10 10 10 11 11 11 11 11 11 11 11 11 11 11 10
6 6 6 5 5 4 5 4 5 6 6 7 7 8 9 9 9 9 9 9 9 9 9 9 9 9 9 9 9 9 9 9 10 10 10 10 10 10 11 11 11 11 11 11 11 10 10 11 10
6 5 5 4 3 4 5 5 5 5 6 7 7 8 8 9 9 9 9 9 9 9 9 9 9 9 9 9 9 9 9 9 9 10 10 10 10 10 10 11 11 11 10 10 11 10 10 11 11
5 3 3 3 2 3 5 5 5 6 6 7 7 7 8 8 8 8 8 8 9 8 8 8 8 8 8 9 9 9 9 9 9 10 9 9 10 10 10 10 10 11 11 11 11 10 10 10 11
5 4 3 3 3 4 4 5 5 6 7 8 8 7 7 8 8 8 8 8 8 8 8 8 8 8 8 8 8 9 9 9 9 9 9 10 10 10 10 10 10 11 11 11 11 11 11 10 10
5 4 4 3 2 3 3 4 5 6 6 7 7 7 7 7 7 7 7 8 8 8 8 8 8 8 8 8 8 9 9 9 9 9 9 10 10 10 10 10 10 10 10 11 11 11 11 10 10
5 4 3 3 2 3 3 4 4 5 6 6 6 6 6 7 7 7 7 7 7 8 8 8 7 8 8 8 8 8 8 9 9 9 9 9 10 10 10 10 10 10 10 10 10 11 10 10 10
5 4 3 2 2 3 3 5 6 5 6 5 5 6 6 6 6 6 6 7 7 7 7 7 7 7 7 8 8 8 8 9 9 9 9 9 9 10 10 10 10 10 10 10 10 10 10 10 10
5 4 3 2 2 2 3 4 7 6 5 5 6 6 6 6 6 6 6 6 6 7 7 7 7 7 7 7 7 8 8 8 8 9 9 9 9 9 10 10 10 10 10 10 10 10 10 10 10
Wind_Speed
10 8 2 4 4 0 6 7 5 4 4 4 3 3 5 5 3 3 1 3 8 12 15 20 21 21 21 21 21 21 21 21 21 21 21 21 21 21 21 20 20 19 18 18 18 18 18 18 17
7 3 3 4 3 5 7 7 9 10 7 5 4 2 1 3 2 3 2 3 9 12 13 17 21 21 21 21 21 21 21 21 21 21 21 21 21 21 21 20 20 19 19 18 18 18 18 17 17
5 1 3 3 5 8 7 5 8 9 8 5 4 3 2 1 1 1 2 5 9 9 11 15 21 21 21 21 21 21 21 21 21 21 21 21 21 21 21 20 20 20 19 19 19 18 18 17 16
3 3 2 2 11 8 6 5 4 7 7 5 3 4 4 2 1 1 3 4 7 7 8 13 19 21 21 21 21 22 22 21 21 21 21 21 21 21 21 20 20 20 20 20 19 18 17 17 16
3 3 1 6 10 6 5 8 8 9 6 6 4 4 6 4 4 5 5 5 4 4 6 10 16 19 20 21 21 21 22 21 21 21 22 22 21 21 21 21 21 21 21 20 19 18 17 16 15
3 2 3 8 9 6 4 5 5 7 7 6 4 5 5 1 6 4 3 2 3 4 5 8 13 15 17 19 20 20 21 21 21 21 22 22 22 21 21 21 21 21 20 20 19 18 17 16 15
3 2 5 6 6 5 4 4 2 5 7 6 4 5 6 5 5 4 3 2 2 2 3 5 8 11 14 16 18 19 19 20 21 21 21 22 22 22 22 22 21 21 20 20 19 18 17 16 15
4 2 4 4 6 5 3 4 3 5 7 6 2 2 6 8 7 5 4 3 1 0 2 3 5 7 9 11 15 16 17 19 19 19 20 21 22 23 22 22 21 21 21 20 19 18 17 16 14
3 1 6 5 4 5 5 7 7 6 5 6 4 5 7 7 5 5 4 4 2 2 1 3 3 5 7 8 12 14 15 16 18 18 19 19 17 18 19 20 21 21 21 20 19 18 16 14 13
3 5 8 4 3 6 9 8 9 7 10 9 10 8 5 4 3 3 4 4 4 5 4 4 4 5 6 7 8 9 10 12 13 14 15 14 14 15 16 20 21 21 20 20 19 18 15 11 9
3 6 5 6 6 7 10 11 8 8 12 11 11 11 7 6 6 5 5 7 7 6 6 5 5 5 5 5 6 6 6 8 10 13 13 13 13 12 13 13 16 17 17 14 15 13 10 8 7
4 7 7 7 8 9 10 10 10 11 15 12 12 11 9 9 8 7 7 7 7 7 7 6 6 5 5 6 6 6 6 6 7 11 13 12 8 8 9 8 10 11 11 10 9 7 8 7 8
5 7 8 10 12 12 12 13 13 16 16 13 12 11 11 11 10 8 8 7 7 7 7 6 6 6 5 5 6 6 7 7 8 10 13 13 9 9 9 9 10 10 11 10 8 7 7 6 6
5 7 10 12 13 10 11 15 11 14 11 11 12 12 12 11 10 8 7 7 7 8 7 7 6 7 6 5 6 6 7 8 9 9 12 14 12 10 10 9 9 9 11 11 10 9 7 6 5
5 8 11 8 8 5 7 12 11 14 10 11 12 13 12 11 10 10 9 9 8 8 7 8 7 7 8 7 7 7 8 9 8 9 13 15 14 13 11 10 9 10 12 12 10 8 6 6 5
4 3 6 6 5 4 4 13 13 9 9 13 13 12 11 11 10 10 9 9 8 8 8 8 7 7 8 7 7 6 7 8 8 10 12 15 15 16 11 9 10 12 11 10 9 8 6 6 5
2 4 7 9 5 4 4 14 16 11 10 13 12 10 10 9 9 9 9 9 9 8 8 8 7 7 8 7 6 7 7 8 8 9 11 13 15 16 13 9 10 13 10 8 10 8 7 7 6
6 6 7 9 6 8 11 17 19 14 10 10 10 9 9 9 9 8 8 8 8 7 7 8 7 7 7 6 5 5 6 7 8 9 10 13 14 15 13 10 10 12 10 9 9 9 7 7 7
7 8 12 12 9 8 12 17 19 15 9 8 8 7 7 8 7 7 7 7 6 6 5 7 7 7 6 6 6 7 7 7 7 8 12 14 14 14 13 10 10 10 11 11 12 8 9 7 6
7 9 9 11 6 9 11 15 14 10 7 6 7 6 6 6 5 5 5 5 6 6 5 6 8 8 8 7 7 7 7 7 7 8 10 13 14 14 13 12 11 10 10 12 12 10 8 6 7
7 6 7 10 12 5 5 8 7 7 6 6 6 6 6 6 6 5 5 5 5 6 6 6 7 8 9 8 6 5 5 5 6 8 9 11 14 14 13 13 12 11 11 12 13 13 10 9 7
7 6 8 10 7 5 3 6 7 7 8 8 7 6 7 6 5 5 5 5 6 6 5 5 7 8 8 8 8 9 9 8 8 8 8 9 12 13 14 13 13 13 11 12 14 13 10 12 9
6 9 10 9 4 4 2 2 7 6 6 7 7 7 7 6 5 5 5 5 6 4 4 5 6 8 8 8 10 10 10 8 6 7 8 9 9 12 14 14 13 12 11 13 14 13 12 10 10
5 7 6 3 3 2 3 1 6 4 5 6 8 8 8 7 6 6 5 5 4 3 3 4 6 8 8 8 9 11 12 10 9 9 10 9 8 10 13 13 13 13 11 13 14 15 14 12 10
6 6 6 7 5 4 4 2 6 7 5 4 7 8 9 8 6 5 5 5 4 4 4 4 6 8 8 9 10 11 13 13 13 11 11 10 9 9 13 12 13 13 13 13 13 14 14 13 13
3 3 2 2 4 6 5 4 6 6 5 5 6 7 8 8 7 6 6 5 5 5 5 5 6 6 7 9 10 10 10 11 10 11 11 11 10 10 12 12 13 13 14 14 14 13 13 12 13
2 1 3 3 4 4 5 6 7 5 6 7 7 9 10 10 8 7 7 6 6 6 6 6 6 5 6 7 7 8 9 10 10 11 11 10 10 9 12 13 13 13 14 14 15 13 14 13 12
2 2 3 1 3 5 6 5 5 6 6 7 8 10 11 10 9 8 8 8 7 6 6 5 5 5 6 6 5 5 7 9 9 9 11 10 11 11 12 13 13 13 14 15 14 13 13 13 12
1 0 1 1 2 2 6 7 5 5 5 7 9 9 10 11 11 11 10 9 8 7 6 5 6 5 5 4 4 4 5 5 7 8 9 10 10 12 13 13 13 13 14 14 14 14 14 14 13
3 3 3 1 4 4 5 9 6 5 5 7 9 11 12 11 11 10 10 8 8 8 7 6 6 4 4 3 3 3 3 3 5 6 6 8 10 12 13 13 13 14 14 15 16 16 15 15 15
Wind_Direction
337 333 44 61 69 132 237 235 234 262 258 243 238 176 170 192 186 210 210 140 139 155 169 171 170 168 166 164 161 157 155 153 152 150 148 147 145 144 142 141 140 138 135 131 128 124 121 119 117
336 340 58 76 136 215 245 227 229 243 249 294 303 280 265 234 209 138 123 159 146 156 167 171 172 170 169 167 164 161 159 158 156 155 153 152 150 148 147 145 143 140 136 133 130 127 125 123 121
330 45 100 123 191 209 225 222 224 257 274 288 305 300 227 220 112 143 293 151 140 153 164 173 174 173 171 170 168 165 164 162 160 159 158 157 154 152 150 148 145 141 138 135 132 130 129 127 125
32 52 72 191 230 229 234 273 304 303 308 310 318 315 324 10 97 42 60 102 134 150 158 169 174 175 174 173 171 169 168 167 166 165 163 162 159 156 153 150 147 143 140 138 136 134 133 132 128
58 83 165 238 243 248 259 286 301 303 304 316 335 307 301 339 50 68 80 93 122 155 159 165 173 177 176 176 174 173 172 172 170 170 168 165 162 158 156 153 149 146 143 142 140 138 138 136 130
56 83 192 235 246 256 267 284 295 297 300 315 339 310 281 339 41 44 65 88 115 153 165 167 170 174 177 176 175 175 175 175 174 174 172 168 165 161 159 156 153 150 148 146 144 143 143 141 134
113 141 223 244 261 268 279 314 312 308 311 301 314 309 295 315 355 3 25 38 55 122 155 169 170 170 173 178 179 179 177 176 177 177 175 171 168 164 162 159 157 154 152 150 148 148 147 145 139
134 131 246 252 256 256 303 326 290 303 287 295 317 288 287 299 323 343 357 20 21 74 166 175 171 170 173 175 178 180 180 180 178 176 174 171 169 167 164 162 160 157 155 153 152 151 151 147 142
98 187 236 237 259 276 315 312 300 287 275 285 272 256 264 278 317 340 338 341 326 272 221 187 183 178 174 178 178 177 179 180 177 174 169 169 169 165 164 162 161 160 158 157 156 155 154 150 144
131 215 236 243 273 294 303 299 298 305 298 292 296 294 286 288 286 278 277 277 270 263 239 211 192 192 180 180 174 173 176 174 173 172 168 165 161 163 164 163 163 162 160 160 160 159 157 148 138
196 228 257 274 285 294 296 295 284 277 278 275 280 288 289 289 285 266 248 250 248 238 242 225 207 189 184 180 173 168 167 168 170 171 168 163 157 158 158 161 163 161 159 157 160 156 152 150 145
273 260 266 278 291 290 284 287 282 259 261 265 264 265 263 265 264 262 259 255 256 246 243 234 208 193 190 183 180 175 171 173 174 172 171 164 165 165 162 160 161 159 157 154 153 152 157 159 155
265 277 281 279 286 281 280 274 273 267 267 270 272 267 256 252 258 255 258 262 256 243 238 234 219 196 191 192 189 184 181 183 180 175 175 170 171 173 170 169 164 165 162 160 160 161 165 165 160
269 281 287 284 281 279 277 279 271 267 274 279 272 268 257 249 250 254 257 263 257 242 237 231 227 207 191 197 199 191 185 183 182 180 180 177 173 176 176 174 170 171 171 167 167 168 168 168 162
292 297 297 275 270 271 291 283 257 266 280 280 272 266 262 254 250 244 240 245 251 244 232 227 224 212 196 199 203 201 188 185 190 188 183 183 180 179 182 177 177 176 174 170 166 166 163 161 160
315 313 295 283 277 281 305 280 274 284 281 276 271 267 261 256 249 244 242 246 251 242 231 223 226 220 207 200 205 206 197 189 191 188 185 185 185 183 184 182 182 178 173 171 167 166 162 162 161
347 301 279 292 270 287 282 279 288 295 279 274 268 263 257 259 255 250 246 244 245 233 223 219 218 211 212 208 207 207 204 196 193 190 191 190 188 186 185 187 186 177 173 175 174 169 164 164 164
294 287 279 283 282 293 283 281 293 300 284 274 269 262 252 249 249 247 244 243 243 231 225 215 213 204 206 207 207 205 206 199 195 194 195 189 188 189 186 185 186 179 174 176 173 167 165 163 162
267 266 280 281 287 293 280 287 295 303 295 286 284 273 257 250 247 242 236 237 240 235 227 218 208 200 196 202 200 202 206 203 201 201 196 191 189 190 190 187 185 185 181 178 172 165 164 163 152
285 286 283 292 299 302 285 287 291 298 285 279 290 286 268 269 274 265 249 242 240 230 223 225 215 202 200 207 208 207 209 206 203 202 199 194 191 192 193 187 185 187 184 177 176 165 162 165 162
294 273 282 295 312 300 310 300 301 314 313 319 319 299 283 269 260 256 250 245 235 231 230 235 229 212 208 207 209 211 210 201 204 201 198 199 194 195 195 189 187 186 187 184 181 175 166 168 173
296 274 284 295 317 304 353 306 301 314 331 337 328 322 315 291 275 262 257 251 237 237 239 243 240 221 215 208 208 210 212 210 211 204 203 200 198 197 195 191 190 188 191 187 184 180 174 166 173
272 293 293 287 275 292 293 245 295 323 321 319 322 326 322 304 282 277 269 256 250 242 248 253 251 228 217 215 215 216 216 215 209 204 202 202 205 201 194 193 192 191 194 191 184 180 180 177 175
303 320 324 6 55 316 274 248 300 306 290 310 327 337 331 320 301 290 280 274 271 258 260 269 259 238 219 218 219 218 213 208 206 208 204 204 208 204 197 195 195 191 194 193 187 184 183 184 179
21 23 5 360 3 274 302 289 266 282 286 300 318 329 329 325 310 307 304 298 290 278 268 278 268 246 228 225 223 222 212 206 208 209 208 207 211 208 199 196 198 194 195 192 188 185 186 185 182
326 93 100 300 286 297 312 269 268 292 305 315 326 329 329 330 325 316 305 297 289 279 271 276 269 265 242 232 231 223 215 212 212 211 210 212 213 208 198 197 201 199 195 191 188 187 188 187 188
321 249 194 199 285 285 281 287 302 312 327 334 337 340 337 329 323 317 310 300 294 288 281 274 263 264 258 248 239 228 221 219 217 212 212 215 211 208 200 200 204 201 197 193 188 190 188 187 190
193 174 67 67 319 296 292 276 272 299 315 330 339 338 333 333 331 326 323 319 309 302 295 295 279 270 264 243 236 239 236 227 218 216 217 213 210 204 200 200 203 203 198 194 190 190 186 186 190
23 54 148 208 211 251 293 280 244 256 289 313 320 324 322 327 329 325 323 322 321 321 318 303 292 283 278 257 243 241 242 236 227 221 220 216 211 203 204 201 202 203 199 193 191 192 185 188 191
205 201 158 195 270 236 263 277 271 274 298 311 314 316 317 321 324 320 318 325 331 325 317 308 307 300 286 283 272 255 255 240 229 224 226 220 214 207 206 202 202 203 198 193 191 190 189 190 193
Height
1499 1501 1503 1505 1509 1514 1511 1502 1494 1489 1486 1482 1481 1480 1480 1481 1483 1486 1480 1477 1477 1478 1480 1482 1484 1486 1487 1489 1491 1493 1495 1497 1499 1501 1503 1504 1506 1507 1509 1510 1512 1513 1515 1516 1517 1517 1518 1519 1520
1499 1501 1504 1504 1511 1514 1507 1495 1490 1485 1482 1480 1480 1479 1478 1477 1478 1478 1477 1477 1478 1478 1480 1481 1483 1485 1487 1489 1491 1492 1494 1496 1498 1500 1502 1504 1505 1507 1508 1510 1511 1512 1514 1515 1516 1517 1518 1519 1520
1498 1500 1502 1504 1507 1505 1498 1488 1485 1482 1481 1481 1479 1478 1477 1476 1476 1477 1477 1477 1477 1478 1479 1481 1483 1485 1486 1488 1490 1492 1493 1495 1497 1499 1501 1503 1504 1506 1508 1509 1510 1512 1513 1514 1516 1517 1518 1519 1520
1498 1500 1502 1505 1500 1494 1490 1484 1483 1482 1481 1480 1480 1478 1477 1478 1477 1477 1476 1476 1477 1477 1478 1480 1482 1484 1485 1487 1489 1490 1492 1494 1496 1498 1500 1502 1503 1505 1507 1508 1510 1511 1512 1514 1515 1517 1518 1519 1520
1498 1499 1503 1502 1496 1490 1486 1484 1483 1483 1482 1480 1480 1478 1476 1476 1475 1475 1474 1475 1475 1476 1477 1479 1480 1482 1484 1486 1488 1489 1491 1493 1495 1497 1499 1500 1502 1504 1506 1507 1509 1510 1512 1513 1515 1516 1518 1519 1520
1498 1499 1504 1501 1494 1488 1486 1485 1484 1484 1482 1481 1480 1478 1474 1474 1472 1472 1472 1473 1474 1475 1476 1478 1479 1481 1483 1485 1486 1488 1489 1491 1493 1495 1497 1499 1501 1502 1504 1506 1508 1509 1511 1513 1514 1516 1517 1519 1520
1499 1501 1500 1497 1493 1489 1486 1485 1485 1485 1483 1481 1480 1478 1473 1471 1471 1470 1470 1471 1472 1473 1475 1476 1478 1479 1481 1483 1485 1486 1488 1489 1491 1493 1495 1497 1499 1501 1503 1505 1507 1508 1510 1512 1513 1515 1517 1518 1520
1497 1500 1498 1496 1492 1488 1486 1485 1485 1484 1482 1481 1479 1477 1473 1471 1470 1469 1469 1469 1470 1471 1472 1474 1476 1477 1479 1481 1483 1484 1486 1488 1489 1491 1493 1495 1497 1499 1501 1503 1505 1507 1509 1511 1512 1514 1516 1518 1519
1497 1502 1499 1494 1491 1488 1485 1484 1483 1481 1479 1477 1476 1475 1473 1470 1468 1467 1466 1466 1467 1469 1470 1471 1473 1475 1476 1478 1480 1481 1483 1485 1487 1489 1490 1492 1494 1497 1499 1501 1503 1505 1507 1509 1511 1513 1516 1517 1519
1496 1500 1494 1490 1488 1487 1485 1483 1481 1479 1475 1472 1470 1469 1468 1467 1466 1464 1463 1463 1464 1464 1466 1468 1469 1471 1473 1475 1476 1478 1480 1482 1484 1485 1487 1489 1492 1494 1496 1499 1501 1503 1506 1508 1510 1512 1515 1516 1518
1494 1494 1490 1487 1486 1485 1483 1480 1479 1477 1472 1470 1468 1465 1464 1463 1463 1462 1461 1462 1461 1461 1462 1464 1466 1468 1469 1471 1473 1474 1476 1478 1480 1482 1484 1486 1489 1491 1493 1496 1499 1501 1504 1506 1509 1511 1513 1515 1517
1493 1490 1488 1486 1484 1483 1481 1478 1475 1471 1467 1466 1464 1463 1461 1460 1460 1459 1458 1458 1459 1459 1459 1460 1462 1464 1465 1467 1469 1470 1472 1474 1475 1478 1480 1483 1485 1488 1490 1492 1495 1498 1500 1503 1506 1509 1512 1514 1516
1492 1489 1486 1484 1482 1480 1477 1474 1471 1464 1461 1461 1459 1458 1457 1456 1456 1455 1455 1455 1455 1455 1456 1456 1457 1459 1461 1463 1465 1466 1468 1470 1472 1474 1476 1479 1481 1484 1487 1489 1492 1495 1497 1500 1504 1507 1510 1512 1514
1490 1487 1484 1481 1478 1476 1473 1469 1467 1458 1457 1455 1453 1452 1452 1451 1451 1451 1450 1450 1450 1451 1451 1452 1453 1455 1456 1458 1460 1462 1464 1466 1468 1470 1472 1474 1477 1480 1483 1486 1488 1491 1494 1497 1501 1505 1508 1510 1513
1489 1487 1482 1477 1475 1473 1472 1465 1459 1454 1453 1451 1449 1447 1446 1445 1445 1445 1445 1445 1445 1445 1447 1448 1449 1450 1451 1453 1455 1457 1459 1461 1464 1466 1468 1471 1474 1477 1479 1482 1484 1488 1491 1495 1498 1502 1506 1508 1511
1489 1489 1486 1476 1473 1471 1474 1464 1453 1451 1450 1446 1444 1442 1441 1440 1440 1440 1440 1440 1440 1441 1442 1443 1444 1445 1446 1448 1450 1452 1454 1456 1459 1461 1464 1467 1469 1472 1476 1478 1480 1484 1488 1491 1495 1498 1502 1505 1508
1492 1493 1487 1478 1471 1470 1470 1461 1450 1448 1446 1442 1439 1437 1436 1435 1435 1435 1435 1436 1436 1436 1437 1438 1439 1439 1441 1443 1444 1447 1449 1451 1454 1456 1459 1462 1464 1468 1471 1474 1476 1480 1483 1487 1491 1495 1498 1501 1505
1493 1491 1485 1480 1471 1469 1467 1458 1446 1442 1441 1437 1434 1433 1432 1432 1431 1432 1432 1432 1432 1432 1432 1432 1433 1434 1436 1438 1440 1442 1443 1446 1449 1451 1454 1457 1460 1463 1466 1469 1472 1475 1479 1483 1487 1491 1495 1498 1502
1488 1486 1484 1474 1468 1467 1461 1453 1444 1439 1437 1434 1431 1429 1428 1428 1428 1428 1428 1428 1428 1427 1427 1427 1428 1429 1431 1433 1434 1435 1437 1439 1442 1445 1448 1451 1454 1458 1461 1464 1467 1470 1473 1477 1482 1486 1490 1495 1499
1484 1483 1479 1469 1464 1463 1457 1450 1442 1438 1435 1432 1430 1427 1426 1425 1424 1424 1423 1423 1422 1422 1422 1423 1423 1424 1426 1427 1429 1430 1432 1434 1436 1440 1443 1446 1449 1452 1455 1458 1461 1465 1469 1472 1477 1481 1485 1490 1494
1481 1480 1476 1472 1464 1460 1459 1450 1442 1436 1432 1430 1428 1426 1424 1422 1421 1420 1419 1419 1418 1418 1419 1419 1418 1419 1420 1422 1424 1425 1427 1429 1431 1433 1437 1440 1443 1447 1450 1453 1456 1460 1464 1466 1471 1476 1479 1483 1489
1481 1473 1472 1469 1471 1469 1464 1463 1445 1439 1434 1430 1427 1424 1421 1420 1418 1417 1416 1415 1415 1414 1414 1414 1415 1414 1415 1416 1418 1418 1420 1421 1423 1427 1431 1434 1437 1441 1444 1447 1451 1455 1459 1462 1466 1471 1475 1478 1482
1478 1472 1470 1467 1469 1471 1465 1467 1451 1441 1436 1431 1427 1423 1420 1418 1416 1415 1413 1412 1412 1411 1410 1410 1410 1410 1410 1411 1412 1413 1415 1416 1419 1423 1425 1428 1432 1435 1438 1442 1446 1449 1453 1456 1460 1465 1471 1474 1476
1476 1473 1469 1470 1474 1476 1465 1465 1455 1445 1437 1431 1426 1423 1420 1417 1415 1413 1411 1409 1407 1407 1406 1406 1405 1405 1404 1406 1407 1408 1409 1411 1414 1416 1420 1423 1426 1429 1433 1436 1440 1443 1447 1451 1454 1460 1465 1469 1472
1480 1485 1486 1486 1488 1479 1463 1460 1453 1439 1434 1431 1427 1423 1420 1417 1414 1411 1409 1406 1405 1404 1403 1401 1400 1399 1400 1400 1401 1402 1403 1405 1407 1410 1414 1417 1420 1423 1426 1429 1434 1437 1441 1446 1450 1454 1459 1463 1467
1483 1486 1495 1497 1492 1476 1465 1460 1447 1437 1432 1429 1427 1424 1420 1416 1413 1410 1407 1404 1402 1400 1399 1397 1396 1395 1395 1395 1395 1397 1398 1400 1402 1405 1408 1411 1414 1416 1421 1424 1429 1432 1435 1439 1444 1449 1453 1458 1462
1483 1486 1486 1492 1490 1486 1470 1458 1444 1435 1432 1429 1426 1422 1419 1415 1412 1409 1405 1402 1400 1397 1395 1393 1391 1390 1390 1390 1390 1390 1393 1395 1397 1400 1403 1406 1408 1411 1415 1419 1422 1426 1430 1434 1438 1442 1447 1452 1457
1481 1483 1490 1493 1495 1486 1470 1462 1451 1438 1433 1429 1426 1422 1418 1414 1410 1406 1403 1400 1397 1394 1391 1389 1388 1386 1386 1385 1385 1385 1386 1389 1391 1394 1397 1399 1402 1406 1409 1413 1417 1421 1425 1429 1433 1437 1441 1446 1451
1483 1485 1486 1491 1491 1489 1478 1457 1439 1436 1432 1429 1426 1422 1418 1413 1408 1404 1399 1396 1392 1390 1388 1386 1384 1383 1382 1381 1381 1381 1382 1384 1386 1388 1391 1393 1396 1400 1404 1407 1411 1414 1418 1423 1427 1431 1435 1440 1445
1481 1482 1486 1493 1492 1486 1479 1455 1434 1432 1430 1428 1425 1421 1417 1412 1408 1403 1399 1394 1391 1388 1386 1383 1381 1379 1379 1378 1378 1378 1379 1380 1382 1384 1386 1388 1391 1394 1398 1402 1405 1408 1412 1417 1421 1425 1430 1434 1439